#timestamp,LO_Frequency,Hit,StdDev 
1661410815.7,286047002.3,N
1661410835.6,286047002.8,N
1661410855.4,286047000.0,N
1661410875.2,286046999.7,N
1661410895.1,286047000.0,N
1661410896.0,286047000.0,N
1661410915.8,286047002.8,N
1661410935.7,286046999.8,N
1661410955.5,286047002.8,N
1661410975.3,286047002.4,N
1661410995.2,286047000.0,N
1661411015.0,286047002.6,N
1661411015.9,286047002.6,N
1661411035.7,286047002.4,N
1661411055.6,286046999.8,N
1661411075.4,286047000.0,N
1661411095.3,286046999.9,N
1661411115.1,286046999.8,N
1661411116.0,286046999.8,N
1661411135.8,286047002.7,N
1661411155.7,286047002.2,N
1661411175.5,286046999.7,N
1661411195.4,286047002.5,N
1661411215.2,286047000.1,N
1661411235.0,286047002.3,N
1661411235.9,286047002.3,N
1661411255.8,286047000.2,N
1661411275.6,286046999.9,N
1661411295.4,286047002.4,N
1661411315.3,286047002.6,N
1661411335.1,286046999.8,N
1661411355.9,286047002.3,N
1661411375.7,286047001.8,N
1661411395.5,286047002.2,N
1661411415.4,286047000.1,N
1661411435.2,286046999.7,N
1661411455.0,286047001.9,N
1661411456.0,286047001.9,N
1661411475.8,286047002.0,N
1661411495.6,286047002.6,N
1661411515.5,286046999.8,N
1661411535.3,286047002.3,N
1661411555.1,286047002.6,N
1661411575.9,286047000.1,N
1661411595.7,286047002.3,N
1661411615.6,286047002.7,N
1661411635.4,286046999.8,N
1661411655.2,286047002.4,N
1661411675.1,286047001.5,N
1661411676.0,286047001.5,N
1661411695.8,286047001.5,N
1661411715.6,286047003.9,Y
1661411735.5,286047002.6,P
1661411755.3,286047001.3,N
1661411775.2,286047001.3,N
1661411795.9,286047001.8,Y
1661411815.7,286047000.0,P
1661411835.6,286046999.9,N
1661411855.4,286047000.7,N
1661411875.3,286047001.0,N
1661411895.1,286047000.7,N
1661411896.0,286047000.7,N
1661411915.8,286046998.9,N
1661411935.7,286046999.3,N
1661411955.5,286046999.1,N
1661411975.3,286046999.6,N
1661411995.2,286046998.9,N
1661412015.0,286046998.3,N
1661412015.9,286046998.3,N
1661412035.8,286046999.1,N
1661412055.6,286046999.6,N
1661412075.4,286046999.6,N
1661412095.3,286046999.5,N
1661412115.1,286046999.2,N
1661412135.9,286046998.6,N
1661412155.7,286047001.2,N
1661412175.5,286047001.2,N
1661412195.4,286047000.7,N
1661412215.2,286046999.2,N
1661412235.0,286046998.8,N
1661412235.9,286046998.8,N
1661412255.8,286046998.9,N
1661412275.6,286047000.9,N
1661412295.5,286047000.5,N
1661412315.3,286047002.4,N
1661412335.1,286047001.8,N
1661412355.9,286047003.7,Y
1661412375.7,286047003.6,P
1661412395.6,286047004.2,N
1661412415.4,286047003.9,N
1661412435.2,286047003.2,N
1661412455.1,286047003.7,N
1661412456.0,286047003.7,N
1661412475.8,286047001.8,N
1661412495.6,286047001.6,N
1661412515.5,286047002.1,N
1661412535.3,286047002.2,N
1661412555.2,286047002.8,N
1661412575.9,286047001.5,N
1661412595.7,286047002.6,N
1661412615.6,286047002.5,N
1661412635.4,286047002.5,N
1661412655.2,286047002.6,N
1661412675.1,286047000.4,N
1661412676.0,286047000.4,N
1661412695.8,286047000.0,N
1661412715.7,286047001.4,N
1661412735.5,286047004.4,Y
1661412755.3,286046998.9,P
1661412775.2,286046997.1,N
1661412795.0,286046997.0,N
1661412795.9,286046997.0,N
1661412815.8,286046998.4,N
1661412835.6,286046997.3,N
1661412855.4,286046997.4,N
1661412875.3,286046994.9,Y
1661412895.1,286046999.3,P
1661412915.8,286046996.7,P
1661412935.7,286046999.5,N
1661412955.5,286046996.6,Y
1661412975.4,286046998.8,P
1661412995.2,286046999.4,P
1661413015.0,286046999.3,N
1661413015.9,286046999.3,N
1661413035.8,286046999.4,N
1661413055.6,286046999.0,N
1661413075.5,286046999.5,N
1661413095.3,286046998.7,Y
1661413115.1,286046999.3,P
1661413135.9,286046999.4,P
1661413155.7,286046998.5,P
1661413175.5,286046999.3,N
1661413195.4,286046996.5,Y
1661413215.2,286046999.4,P
1661413235.1,286046998.8,P
1661413236.0,286046998.8,P
1661413255.8,286046998.7,Y
1661413275.6,286047001.0,P
1661413295.5,286047000.5,N
1661413315.3,286047001.0,N
1661413335.1,286047000.1,N
1661413355.9,286047000.6,N
1661413375.7,286047000.6,N
1661413395.6,286047000.3,N
1661413415.4,286047001.0,N
1661413435.2,286047000.4,N
1661413455.1,286047000.2,N
1661413456.0,286047000.2,N
1661413475.8,286047000.9,N
1661413495.7,286046998.4,Y
1661413515.5,286046999.6,P
1661413535.3,286046998.1,P
1661413555.2,286046998.2,N
1661413575.0,286046999.2,N
1661413575.9,286046999.2,N
1661413595.8,286046999.6,N
1661413615.6,286046996.7,Y
1661413635.4,286046999.6,P
1661413655.3,286046996.6,P
1661413675.1,286046999.5,N
1661413695.8,286046998.9,N
1661413715.7,286046999.5,N
1661413735.5,286046999.1,N
1661413755.4,286046999.5,N
1661413775.2,286046999.5,N
1661413795.0,286046999.1,N
1661413795.9,286046999.1,N
1661413815.8,286046997.0,Y
1661413835.6,286046998.9,P
1661413855.4,286046996.5,P
1661413875.3,286046996.5,P
1661413895.1,286046996.9,N
1661413915.9,286046999.6,N
1661413935.7,286046996.5,N
1661413955.5,286046996.6,N
1661413975.4,286046998.8,N
1661413995.2,286046999.0,N
1661414015.0,286046999.0,N
1661414015.9,286046999.0,N
1661414035.8,286046999.2,N
1661414055.6,286046999.2,N
1661414075.5,286046999.3,N
1661414095.3,286046999.5,N
1661414115.1,286046996.8,N
1661414135.9,286046997.7,N
1661414155.7,286046997.1,N
1661414175.6,286046997.3,N
1661414195.4,286046997.8,N
1661414215.2,286046997.4,N
1661414235.1,286046997.1,N
1661414236.0,286046997.1,N
1661414255.8,286046997.7,N
1661414275.6,286046997.6,N
1661414295.5,286046997.3,N
1661414315.3,286046997.3,N
1661414335.2,286046996.5,Y
1661414355.9,286047001.2,P
1661414375.7,286046998.4,N
1661414395.6,286046998.3,N
